CZ-4C DEB, 42670

Orbit data source: Space-Track

CZ-4C DEB, 42670 is space debris in SSO originally from a launch on Thu, 26 Nov 2015 UTC launched from the Taiyaun Space Center, China (TSC). Debris objects in space refer to the collection of defunct objects orbiting the Earth. Examples of debris include non-operational satellites, rocket bodies, and fragments generated from explosions, collisions, or faulty payload assembly.

Loading next visibility...
Identifier
42670, 2015-069C
Orbit
SSO
Country
Flag of CNCN / PRC
Related business
Manufacturer
Unknown
Mission
Spacecraft
Bus & Motor
Unknown
Mass
Unknown
Launch date (UTC)
2015-11-26 (10 years ago)
Launch vehicle
Unknown
Launch site
Taiyaun Space Center, China (TSC)
Object type
Payload
Rocket body
Debris
Shape & HBR
Unknown shape, 0.1 m
Radar Cross Section
Small (<0.1 m²)

Expand to show TLE details & history
Last TLE update: 2 days ago

TLE from 2 days ago
0 CZ-4C DEB
1 42670U 15069C   25307.91381448  .00010849  00000-0  37680-3 0  9994
2 42670  97.5087  11.2851 0060095 240.2879 119.2371 15.28194080498617
Epoch: 2025-11-03T21:55Z
TLE epoch observation values (Epoch: 2025-11-03T21:55:53.571Z)
Latitude
-0.00002°
Longitude
-1.09647°
Altitude
504.635 km
Speed
7.601 km/s
True Right ascension
00h 45m 08s
True Declination
0° 00' 00"
Sunlit
Object was in full shadow at epoch
Visualization orbit readout
Latitude
Unknown
Longitude
Unknown
Altitude
Unknown
Speed
Unknown
Apparent Right ascension
Unknown
Apparent Declination
Unknown
Sunlit
N/A
Visualization observer readout
Local Sidereal Time
11:30:22
Azimuth
Unknown
Elevation
Unknown
Doppler factor
Unknown
Orbital elements
Apogee altitude
519.373 km
Perigee altitude
436.967 km
Semi-major axis
6,856.307 km
Eccentricity
0.00601
Inclination
97.5087°
RAAN
11.2851°
Arg. of periapsis
240.2879°
True anomaly
119.8358°
Mean anomaly
119.2371°
Eccentric anomaly
119.53667°
Mean motion
3.82303 °/min
Orbital period
94.17 mins
BSTAR
0.0003768
Loading maneuver chart data...
Computing Atmospheric mass density...
Loading historical data...
Loading historical data...
Loading historical data...
Loading historical data...
Loading historical data...
Loading historical data...
Loading historical data...
Other satellites on launch #69 in the year 2015 (2015-11-26 UTC)

Documentation

Showing up to 5 results
|